Location: Lac de la Montange Noire
(46.1952°N, 74.2701°W)
Time: 10:45:24
(UTC-04:00)

Iridium 42 - Visible Passes

Search period start: 23 April 2014 00:00
Search period end: 03 May 2014 00:00
Orbit: 776 x 779 km, 86.4° (Epoch: 22 April)

Date Brightness Start Highest point End Pass type
(mag) Time Alt. Az. Time Alt. Az. Time Alt. Az.
23 Apr 8.0 21:43:07 10° SW 21:47:08 22° WNW 21:51:11 10° NNW visible
24 Apr 7.1 21:08:32 10° SSW 21:13:21 38° W 21:18:12 10° NNW visible
25 Apr 6.0 20:34:31 10° SSW 20:39:41 66° W 20:44:54 10° N visible
26 Apr 8.4 21:44:16 10° WSW 21:47:28 16° WNW 21:50:40 10° NNW visible
27 Apr 7.8 21:09:11 10° SW 21:13:35 27° WNW 21:18:01 10° NNW visible
28 Apr 6.8 20:34:50 10° SSW 20:39:50 47° W 20:44:52 10° N visible
29 Apr 8.8 21:46:09 10° W 21:47:50 11° WNW 21:49:31 10° NW visible
30 Apr 8.3 21:10:05 10° WSW 21:13:51 20° WNW 21:17:39 10° NNW visible
01 May 7.5 20:35:20 10° SW 20:40:02 34° WNW 20:44:45 10° NNW visible
